Regional Weather Roundup
Issued by NWS

Home | Current Version | Previous Version | Text Only | Print | Product List | Glossary Off
Versions: 1 2 3 4 5 6 7 8 9 10 11 12 13 14 15 16 17 18 19 20 21 22 23 24 25 26 27 28 29 30 31 32 33 34 35 36 37 38 39 40 41 42 43 44 45 46 47 48 49 50

546
ASUS44 KJAN 202210
RWRMS

MISSISSIPPI HOURLY WEATHER ROUNDUP
NATIONAL WEATHER SERVICE JACKSON MS
500 PM CDT MON APR 20 2015

NOTE: "FAIR: INDICATES FEW OR NO CLOUDS BELOW 12,000 FEET WITH NO
SIGNIFICANT WEATHER AND/OR OBSTRUCTIONS TO VISIBILITY.

MSZ001>002-007>008-010>013-018>021-025>028-034>036-202300-
NORTHWEST MISSISSIPPI

CITY           SKY/WX    TMP DP  RH WIND       PRES   REMARKS
CLARKSDALE     FAIR      64  45  48 W7        29.88S
CLEVELAND      FAIR      67  43  41 W13G18    29.87S
GREENWOOD      PTSUNNY   65  42  43 VRB6      29.88R
GREENVILLE     MOSUNNY   69  41  36 NW9G17    29.87S
OLIVE BRANCH   PTSUNNY   63  39  42 W14       29.85R
OXFORD         FAIR      64  39  39 W13G20    29.88R
TUNICA         PTCLDY    64  41  42 W10G17    29.86F
$$

MSZ003>006-009-014>017-022>024-029>033-037>039-202300-
NORTHEAST MISSISSIPPI

CITY           SKY/WX    TMP DP  RH WIND       PRES   REMARKS
COLUMBUS AFB   MOSUNNY   67  47  47 W13       29.83R
CORINTH        FAIR      64  41  42 NW9G16    29.81S
GOLDN TRIANGLE MOSUNNY   68  46  45 W10G17    29.83R
STARKVILLE     MOCLDY    68  46  45 W10G17    29.84S
TUPELO         PTSUNNY   66  42  41 NW7       29.83R
$$

MSZ040-058-202300-
CENTRAL MISSISSIPPI

CITY           SKY/WX    TMP DP  RH WIND       PRES   REMARKS
JACKSON INTL   MOSUNNY   70  44  39 NW10G22   29.87S
JACKSON HAWKNS SUNNY     69  43  38 NW8       29.88S
MERIDIAN KEY   MOSUNNY   69  47  45 NW13      29.85R
MERIDIAN NAS   MOSUNNY   69  47  45 NW15      29.84R
RAYMOND        FAIR      70  64  83 NW10G18   29.88S
VICKSBURG      SUNNY     71  45  39 NW9       29.89S
$$

MSZ059>079-202300-
SOUTH MISSISSIPPI

CITY           SKY/WX    TMP DP  RH WIND       PRES   REMARKS
BROOKHAVEN     FAIR      70  50  49 NW7       29.89R
HATTIESBURG    MOSUNNY   76  52  43 NW13      29.85R
MCCOMB         MOSUNNY   71  47  42 W12       29.87S
NATCHEZ        SUNNY     70  45  40 NW7       29.90S
PINE BELT      MOSUNNY   73  48  40 NW10G17   29.87R
$$

MSZ080>082-202300-
COASTAL MISSISSIPPI

CITY           SKY/WX    TMP DP  RH WIND       PRES   REMARKS
BILOXI         PTSUNNY   79  56  44 VRB2      29.82R
PASCAGOULA     PTSUNNY   77  63  61 SW10      29.81R
GULFPORT       PTSUNNY   78  55  44 W9        29.82R
$$



USA.gov is the U.S. government's official web portal to all federal, state and local government web resources and services.